Location: Unspecified
(0.0000°N, 0.0000°E)
Time: 11:29:00
(UTC+00:00)

Vanguard 1 - Pass Details

Date: 24 November 2019
Orbit: 652 x 3831 km, 34.3° (Epoch: 07 December)

Event Time Altitude Azimuth Distance (km) Brightness Sun altitude
Rises 21:20:24 0° 234° (SW) 4,542 14.1 -48.7°
Reaches altitude 10° 21:26:12 10° 205° (SSW) 4,259 13.7 -49.9°
Maximum altitude 21:30:26 12° 183° (S) 4,554 13.6 -50.8°
Drops below altitude 10° 21:35:30 10° 163° (SSE) 5,279 13.8 -51.9°
Sets 21:45:41 0° 137° (SE) 7,174 14.4 -53.9°
